This demonstration page uses our WeatherBlox Daily Observations layout. Learn more.

Left ArrowRight Arrow

38.89511, -77.03637

Hourly Observations for August 24, 2015

Temp ( °F °C ) Dew Point ( °F °C ) Humidity (%) Winds ( mph kmh ) Pressure ( in mb ) Visibility ( mi km ) Precip ( " mm )
12:52 am 00:52 Cloudy 75 23.9 63 17.2 66 66 SSW 7 11 29.94 1014 10 16 N/A
1:52 am 01:52 Partly Cloudy 73 22.8 63 17.2 71 71 SSW 6 9 29.92 1013 10 16 N/A
2:52 am 02:52 Partly Cloudy 73 22.8 64 17.8 74 74 SSE 6 9 29.91 1013 10 16 N/A
3:52 am 03:52 Partly Cloudy 72 22.2 64 17.8 76 76 S 6 9 29.90 1013 10 16 N/A
4:52 am 04:52 Partly Cloudy 72 22.2 63 17.2 73 73 SSW 8 13 29.90 1012 10 16 N/A
5:52 am 05:52 Mostly Cloudy 71 21.7 64 17.8 79 79 S 7 11 29.90 1013 10 16 N/A
6:52 am 06:52 Mostly Cloudy 71 21.7 65 18.3 81 81 SE 5 7 29.91 1013 10 16 N/A
7:52 am 07:52 Mostly Cloudy 73 22.8 65 18.3 76 76 S 5 7 29.91 1013 10 16 N/A
8:52 am 08:52 Mostly Cloudy 74 23.3 66 18.9 76 76 S 5 7 29.91 1013 10 16 N/A
9:52 am 09:52 Mostly Cloudy 78 25.6 66 18.9 67 67 S 8 13 29.91 1013 10 16 N/A
10:52 am 10:52 Partly Cloudy 80 26.7 67 19.4 64 64 SSE 7 11 29.91 1013 10 16 N/A
11:52 am 11:52 Partly Cloudy 84 28.9 68 20 59 59 SSE 8 13 29.90 1013 10 16 N/A
12:52 pm 12:52 Partly Cloudy 86 30 69 20.6 57 57 S 8 13 29.88 1012 10 16 N/A
1:52 pm 13:52 Mostly Cloudy 87 30.6 68 20 53 53 S 9 15 29.87 1011 10 16 N/A
2:52 pm 14:52 Partly Cloudy 90 32.2 68 20 48 48 S 9 15 29.84 1011 10 16 N/A
3:52 pm 15:52 Partly Cloudy 90 32.2 71 21.7 54 54 S 12 19 29.82 1010 10 16 N/A
4:52 pm 16:52 Partly Cloudy 88 31.1 70 21.1 55 55 S 10 17 29.81 1010 10 16 N/A
5:52 pm 17:52 Mostly Cloudy 87 30.6 69 20.6 55 55 SSW 12 19 29.81 1009 10 16 N/A
6:52 pm 18:52 Mostly Cloudy 86 30 72 22.2 63 63 S 7 11 29.81 1009 10 16 N/A
7:13 pm 19:13 Cloudy 84 29 72 22 66 66 S 8 13 29.83 1010 10 16 N/A
7:29 pm 19:29 Cloudy with Light Rain 84 29 72 22 66 66 WNW 10 17 29.83 1010 10 16 N/A
7:36 pm 19:36 Cloudy with Light Rain 81 27 72 22 74 74 NW 12 19 29.83 1010 10 16 N/A
7:42 pm 19:42 Cloudy with Thunderstorms 81 27 72 22 74 74 WNW 13 20 29.83 1010 10 16 N/A
7:52 pm 19:52 Cloudy with Strong Thunderstorms 76 24.4 70 21.1 82 82 WSW 20 31 29.85 1011 2 2 N/A
7:56 pm 19:56 Cloudy with Strong Thunderstorms 73 23 72 22 94 94 W 21 33 29.85 1011 1 2 0.09 2.29
8:00 pm 20:00 Cloudy with Strong Thunderstorms 73 23 70 21 89 89 W 23 37 29.83 1010 1 1 N/A
8:05 pm 20:05 Cloudy with Strong Thunderstorms 73 23 70 21 89 89 W 24 39 29.83 1010 2 2 0.31 7.87
8:11 pm 20:11 Mostly Cloudy with Thunderstorms 73 23 72 22 94 94 W 17 28 29.83 1010 4 6 0.40 10.16
8:16 pm 20:16 Mostly Cloudy with Thunderstorms 75 24 70 21 83 83 W 13 20 29.83 1010 8 13 N/A
8:23 pm 20:23 Mostly Cloudy with Light Rain 75 24 68 20 78 78 W 9 15 29.83 1010 10 16 0.41 10.41
8:40 pm 20:40 Partly Cloudy 75 24 70 21 83 83 NW 5 7 29.83 1010 10 16 N/A
8:52 pm 20:52 Partly Cloudy 75 23.9 71 21.7 88 88 ENE 8 13 29.84 1010 10 16 0.41 10.41
9:52 pm 21:52 Cloudy 76 24.4 72 22.2 88 88 ENE 3 6 29.86 1011 10 16 N/A
10:52 pm 22:52 Mostly Cloudy 76 24.4 72 22.2 88 88 N N/A 29.87 1012 10 16 N/A
11:52 pm 23:52 Mostly Cloudy 76 24.4 72 22.2 88 88 N 3 6 29.87 1012 10 16 N/A

Powered by AerisWeather